Date String (YYYY-MM-DD hh:mm:ss) UTC,Instrument flags,absolute air pressure of the measurement (hPa),sample flow rate (lpm),inlet stack bypass flow (lpm),air temperature of the measurement (°C),ambient temperature measured by the external sensor (°C),aerosol sample conditioner tube jacket temperature (°C),OPC LED temperature (°C),internal box temperature (°C),relative humidity of the measurement (%),span deviation,mass concentration of particles derived from Lorenz-Mie calculation of OPC scattering (μg/m³),mass concentration of particles derived from Lorenz-Mie calculation of OPC scattering (μg/m³),mass concentration of particles derived from Lorenz-Mie calculation of OPC scattering (μg/m³)
DateTimeUTC,F1_M11,P_M11,Q1_M11,Q2_M11,T1_M11,T2_M11,T3_M11,T4_M11,T5_M11,U1_M11,ZSPAN_M11,X2_M11,X0_M11,X1_M11
2024-03-08 06:00:00,SystemResetWarning,0827.0,5.00,000.00,018.8,018.3,000.0,027.2,020.6,22.1,0001.2,0005.83,0008.01,0005.67
2024-03-08 06:01:00,SystemResetWarning,0827.1,5.00,000.00,018.8,018.2,000.0,027.2,020.5,22.2,0001.6,0005.84,0008.00,0005.66
2024-03-08 06:02:00,SystemResetWarning,0827.0,5.00,000.00,018.7,018.1,000.0,027.3,020.5,22.2,0001.6,0005.82,0008.02,0005.64
2024-03-08 06:03:00,SystemResetWarning,0827.0,5.00,000.00,018.7,018.0,000.0,027.2,020.4,22.2,0001.5,0005.81,0008.01,0005.63
2024-03-08 06:04:00,SystemResetWarning,0827.0,5.00,000.00,018.7,017.9,000.0,027.2,020.4,22.3,0001.9,0005.79,0007.95,0005.62
2024-03-08 06:05:00,SystemResetWarning,0827.0,4.99,000.00,018.7,017.8,000.0,027.2,020.3,22.4,0002.2,0005.81,0008.00,0005.63
2024-03-08 06:06:00,SystemResetWarning,0827.0,5.00,000.00,018.6,017.8,000.0,027.2,020.3,22.4,0002.1,0005.82,0008.05,0005.63
2024-03-08 06:07:00,SystemResetWarning,0827.0,5.00,000.00,018.6,017.7,000.0,027.2,020.3,22.4,0001.9,0005.84,0008.06,0005.64
2024-03-08 06:08:00,SystemResetWarning,0827.0,5.01,000.00,018.6,017.7,000.0,027.2,020.2,22.5,0001.6,0005.84,0008.04,0005.64
2024-03-08 06:09:00,SystemResetWarning,0827.1,5.00,000.00,018.5,017.7,000.0,027.2,020.2,22.4,0001.3,0005.85,0008.05,0005.64
2024-03-08 06:10:00,SystemResetWarning,0827.1,5.00,000.00,018.5,017.6,000.0,027.2,020.2,22.4,0002.1,0005.83,0008.03,0005.63
2024-03-08 06:11:00,SystemResetWarning,0827.1,5.00,000.00,018.5,017.6,000.0,027.2,020.2,22.4,0002.3,0005.78,0007.96,0005.60
2024-03-08 06:12:00,SystemResetWarning,0827.1,5.00,000.00,018.5,017.5,000.0,027.1,020.2,22.3,0002.0,0005.74,0008.03,0005.57
2024-03-08 06:13:00,SystemResetWarning,0827.1,4.99,000.00,018.4,017.5,000.0,027.1,020.1,22.4,0002.2,0005.72,0008.43,0005.55
2024-03-08 06:14:00,SystemResetWarning,0827.1,5.00,000.00,018.4,017.6,000.0,027.1,020.2,22.4,0002.0,0005.71,0008.57,0005.54
2024-03-08 06:15:00,SystemResetWarning,0827.1,5.01,000.00,018.6,018.3,000.0,027.3,020.6,22.2,0001.8,0005.71,0008.75,0005.53
2024-03-08 06:16:00,SystemResetWarning,0827.2,5.00,000.00,018.8,019.1,000.0,027.3,021.1,22.0,0001.7,0005.71,0009.13,0005.51
2024-03-08 06:17:00,SystemResetWarning,0827.2,4.99,000.00,018.9,019.1,000.0,027.3,021.1,21.7,0001.5,0005.67,0009.09,0005.48
2024-03-08 06:18:00,SystemResetWarning,0827.1,4.99,000.00,018.9,018.9,000.0,027.3,020.9,21.6,0001.8,0005.64,0009.09,0005.44
2024-03-08 06:19:00,SystemResetWarning,0827.1,5.02,000.00,018.9,018.7,000.0,027.3,020.8,21.6,0001.3,0005.60,0009.03,0005.41
2024-03-08 06:20:00,SystemResetWarning,0827.1,5.01,000.00,018.9,018.6,000.0,027.3,020.7,21.6,0000.6,0005.57,0008.98,0005.40
2024-03-08 06:21:00,SystemResetWarning,0827.1,4.99,000.00,018.9,018.4,000.0,027.3,020.7,21.6,0001.9,0005.55,0008.98,0005.37
2024-03-08 06:22:00,SystemResetWarning,0827.1,4.99,000.00,018.9,018.3,000.0,027.3,020.6,21.7,0000.2,0005.56,0009.06,0005.38
2024-03-08 06:23:00,SystemResetWarning,0827.1,4.99,000.00,018.8,018.2,000.0,027.3,020.6,21.6,0000.3,0005.59,0009.11,0005.39
2024-03-08 06:24:00,SystemResetWarning,0827.1,5.00,000.00,018.8,018.1,000.0,027.3,020.5,21.7,0000.0,0005.60,0008.84,0005.40
2024-03-08 06:25:00,SystemResetWarning,0827.1,5.00,000.00,018.8,018.0,000.0,027.3,020.5,21.7,0000.0,0005.61,0008.44,0005.43
2024-03-08 06:26:00,SystemResetWarning,0827.1,5.01,000.00,018.8,017.9,000.0,027.3,020.4,21.8,0000.0,0005.61,0008.41,0005.43
2024-03-08 06:27:00,SystemResetWarning,0827.2,5.00,000.00,018.7,017.9,000.0,027.3,020.4,21.8,0000.0,0005.58,0007.84,0005.42
2024-03-08 06:28:00,SystemResetWarning,0827.2,4.99,000.00,018.7,017.8,000.0,027.3,020.4,21.8,0000.0,0005.58,0007.83,0005.43
2024-03-08 06:29:00,SystemResetWarning,0827.2,4.99,000.00,018.7,017.8,000.0,027.3,020.4,21.7,0000.0,0005.58,0007.76,0005.43
2024-03-08 06:30:00,SystemResetWarning,0827.2,5.01,000.00,018.6,017.7,000.0,027.2,020.3,21.7,0000.0,0005.59,0007.80,0005.44
2024-03-08 06:31:00,SystemResetWarning,0827.1,5.01,000.00,018.6,017.7,000.0,027.2,020.3,21.7,0000.0,0005.61,0007.82,0005.46
2024-03-08 06:32:00,SystemResetWarning,0827.1,5.01,000.00,018.6,017.7,000.0,027.2,020.3,21.7,0000.0,0005.63,0007.81,0005.49
2024-03-08 06:33:00,SystemResetWarning,0827.2,5.00,000.00,018.6,017.6,000.0,027.2,020.2,21.7,0000.4,0005.63,0007.73,0005.50
2024-03-08 06:34:00,SystemResetWarning,0827.2,4.99,000.00,018.5,017.6,000.0,027.2,020.2,21.7,0000.5,0005.63,0007.70,0005.50
2024-03-08 06:35:00,SystemResetWarning,0827.2,5.00,000.00,018.5,017.6,000.0,027.2,020.2,21.7,0000.9,0005.60,0007.62,0005.49
2024-03-08 06:36:00,SystemResetWarning,0827.2,5.00,000.00,018.5,017.5,000.0,027.2,020.2,21.7,0000.3,0005.58,0007.58,0005.47
2024-03-08 06:37:00,SystemResetWarning,0827.3,5.00,000.00,018.5,017.6,000.0,027.2,020.2,21.7,0000.0,0005.55,0007.54,0005.44
2024-03-08 06:38:00,SystemResetWarning,0827.4,5.01,000.00,018.6,018.3,000.0,027.3,020.6,21.6,0000.5,0005.55,0007.57,0005.42
2024-03-08 06:39:00,SystemResetWarning,0827.4,4.99,000.00,018.8,019.1,000.0,027.4,021.1,21.3,0000.4,0005.53,0007.56,0005.40
2024-03-08 06:40:00,SystemResetWarning,0827.4,4.99,000.00,018.9,019.0,000.0,027.3,021.1,21.1,0001.4,0005.51,0007.51,0005.38
2024-03-08 06:41:00,SystemResetWarning,0827.4,5.00,000.00,018.9,018.9,000.0,027.3,020.9,21.1,0001.9,0005.50,0007.50,0005.37
2024-03-08 06:42:00,SystemResetWarning,0827.3,5.01,000.00,018.9,018.7,000.0,027.3,020.8,21.1,0002.3,0005.48,0007.48,0005.35
2024-03-08 06:43:00,SystemResetWarning,0827.4,5.00,000.00,018.9,018.5,000.0,027.3,020.7,21.2,0002.6,0005.48,0007.47,0005.34
2024-03-08 06:44:00,SystemResetWarning,0827.4,4.99,000.00,018.9,018.4,000.0,027.3,020.7,21.2,0000.6,0005.49,0007.47,0005.35
2024-03-08 06:45:00,SystemResetWarning,0827.3,5.01,000.00,018.9,018.2,000.0,027.3,020.6,21.1,0000.0,0005.48,0007.44,0005.35
2024-03-08 06:46:00,SystemResetWarning,0827.3,5.00,000.00,018.8,018.1,000.0,027.3,020.6,21.1,0000.0,0005.50,0007.47,0005.35
2024-03-08 06:47:00,SystemResetWarning,0827.3,4.99,000.00,018.8,018.0,000.0,027.3,020.5,21.2,0000.0,0005.52,0007.54,0005.36
2024-03-08 06:48:00,SystemResetWarning,0827.4,4.99,000.00,018.8,018.0,000.0,027.3,020.5,21.2,0000.0,0005.54,0007.56,0005.36
2024-03-08 06:49:00,SystemResetWarning,0827.4,5.01,000.00,018.8,017.9,000.0,027.3,020.4,21.2,0000.0,0005.53,0007.53,0005.36
2024-03-08 06:50:00,SystemResetWarning,0827.4,5.01,000.00,018.7,017.8,000.0,027.3,020.4,21.2,0000.0,0005.54,0007.57,0005.38
2024-03-08 06:51:00,SystemResetWarning,0827.4,5.00,000.00,018.7,017.8,000.0,027.3,020.4,21.3,0000.0,0005.57,0007.60,0005.39
2024-03-08 06:52:00,SystemResetWarning,0827.4,5.00,000.00,018.7,017.7,000.0,027.3,020.3,21.3,0000.0,0005.60,0007.63,0005.41
2024-03-08 06:53:00,SystemResetWarning,0827.4,4.99,000.00,018.6,017.7,000.0,027.3,020.3,21.4,0000.0,0005.60,0007.61,0005.42
2024-03-08 06:54:00,SystemResetWarning,0827.4,4.99,000.00,018.6,017.6,000.0,027.2,020.3,21.4,0000.0,0005.61,0007.61,0005.43
2024-03-08 06:55:00,SystemResetWarning,0827.4,5.00,000.00,018.6,017.6,000.0,027.2,020.2,21.5,0000.0,0005.60,0007.61,0005.42
2024-03-08 06:56:00,SystemResetWarning,0827.4,5.00,000.00,018.5,017.6,000.0,027.2,020.2,21.5,0000.0,0005.60,0007.65,0005.40
2024-03-08 06:57:00,SystemResetWarning,0827.4,5.01,000.00,018.6,017.8,000.0,027.3,020.4,21.5,0000.0,0005.59,0007.65,0005.39
2024-03-08 06:58:00,SystemResetWarning,0827.5,5.00,000.00,018.7,018.7,000.0,027.4,020.9,21.4,0000.0,0005.58,0007.59,0005.40
2024-03-08 06:59:00,SystemResetWarning,0827.8,5.00,000.00,018.9,019.2,000.0,027.4,021.2,21.1,0000.0,0005.59,0007.61,0005.41
